Tracking 19572 objects as of 23-Feb-2019
HD Live streaming from Space Station
objects crossing your sky now

COSMOS 1995

Track COSMOS 1995 now!
10-day predictions
COSMOS 1995 is classified as:


NORAD ID: 19786
Int'l Code: 1989-009B
Perigee: 1,417.9 km
Apogee: 1,424.6 km
Inclination: 82.6 °
Period: 114.1 minutes
Semi major axis: 7792 km
RCS: 1.2185 m2 (large)
Launch date: February 10, 1989
Source: Commonwealth of Independent States (former USSR) (CIS)
Launch site: PLESETSK MISSILE AND SPACE COMPLEX (PKMTR)
aabbcc
Your satellite tracking list
Your tracking list is empty




NASA's NSSDC Master Catalog

Two Line Element Set (TLE):
1 19786U 89009B   19053.78598046 +.00000011 +00000-0 +21063-5 0  9991
2 19786 082.6206 282.7513 0004334 057.4464 349.5511 12.62147563383334
Source of the keplerian elements: AFSPC